Theta_e
342 342 344 343 346 346 347 346 345 347 349 346 344 344 349 346 343 345 346 347 343 345 346 349 347 346 346 341 352 347 341 346 349
344 344 345 346 347 345 345 346 347 347 348 346 344 346 346 344 341 346 349 346 344 346 350 348 348 348 350 346 345 350 348 346 349
347 348 346 346 347 349 347 346 346 349 349 349 346 349 348 345 344 343 345 346 348 345 350 347 349 352 350 346 349 348 350 346 350
348 345 347 347 344 344 349 348 347 348 351 351 348 348 350 349 348 345 344 348 349 339 349 349 351 346 344 349 349 347 348 348 348
348 347 348 348 346 343 345 350 348 347 349 352 348 349 350 349 349 349 349 346 347 347 344 343 345 350 350 349 349 346 349 349 346
350 349 348 347 347 346 346 352 349 349 348 351 349 348 348 348 348 350 350 351 347 346 346 345 344 344 347 348 347 349 347 346 343
349 350 349 347 348 346 349 349 352 353 351 351 351 348 350 348 349 348 349 349 349 350 348 349 346 345 350 346 346 348 349 349 348
349 350 348 346 344 344 345 343 342 347 349 355 351 351 348 349 347 347 350 349 350 350 350 350 348 347 348 349 347 346 347 348 347
349 349 349 340 342 341 340 341 342 341 342 346 353 352 350 349 349 348 347 350 350 350 349 348 350 351 351 350 346 350 349 351 350
343 341 346 346 346 337 338 337 338 341 348 342 344 354 349 352 350 348 348 349 348 347 347 346 345 345 344 346 348 348 351 350 350
342 341 340 343 341 342 339 340 339 339 343 344 345 347 350 351 352 353 352 348 346 346 346 347 346 345 346 346 347 347 345 346 348
340 340 341 341 339 339 341 341 342 341 339 339 341 344 345 344 346 346 350 350 350 350 349 348 347 346 346 345 346 346 347 346 347
339 339 338 339 340 339 340 341 341 340 340 339 340 339 343 343 342 347 345 345 345 346 346 346 348 348 349 348 345 345 346 345 341
338 338 338 337 336 335 338 339 340 341 341 343 341 340 340 343 341 344 344 342 340 340 340 340 340 345 347 348 347 347 346 344 344
336 336 335 335 335 337 337 338 339 341 342 342 342 341 340 341 340 340 339 335 335 335 336 338 338 343 343 343 343 343 344 343 342
336 335 334 333 333 333 335 337 339 340 341 341 341 340 340 335 332 335 336 336 336 336 337 336 338 339 339 339 339 339 339 339 339
335 334 334 331 333 333 335 337 339 339 339 336 337 341 337 334 336 333 335 337 335 337 337 337 337 336 335 334 334 335 335 336 336
334 331 331 331 332 332 334 335 336 337 337 336 339 338 338 337 335 334 334 335 336 336 336 335 335 336 336 335 334 335 335 336 336
332 330 330 332 331 332 332 334 335 336 337 337 337 336 335 334 334 335 332 333 335 334 334 334 334 334 334 333 332 332 333 333 333
331 329 330 329 329 330 330 330 332 333 334 335 335 335 335 335 335 334 334 333 333 333 332 332 331 331 331 330 329 328 327 329 328
Wind_Speed
37 35 24 20 34 34 24 31 30 27 23 17 24 25 23 23 22 17 16 14 12 14 16 9 18 12 9 9 5 6 11 13 6
32 33 28 35 35 39 37 34 32 29 25 19 19 23 25 24 23 18 14 13 12 15 7 9 11 9 6 8 8 9 10 8 10
30 27 29 20 25 33 37 35 31 27 26 21 19 22 22 22 22 25 19 17 15 16 10 13 13 13 10 11 11 12 14 11 7
29 28 35 31 35 25 30 28 36 29 24 22 21 24 24 20 19 16 20 19 15 23 17 13 11 16 17 14 15 13 16 14 17
10 10 19 20 29 30 28 27 35 31 28 26 21 24 26 24 22 18 18 16 20 17 19 22 20 12 14 15 14 14 17 17 17
5 2 5 15 19 22 27 18 35 28 31 29 24 26 26 25 24 22 21 21 17 14 14 15 15 17 17 16 15 16 18 18 16
9 4 2 7 15 9 15 8 12 24 30 30 29 28 27 25 24 22 21 19 18 21 16 15 13 16 17 17 17 18 18 17 17
4 5 0 3 13 7 12 6 4 24 21 19 29 28 27 27 25 23 20 20 19 16 17 17 16 15 17 16 15 17 17 17 19
10 5 2 3 6 2 16 29 41 32 16 12 19 28 27 23 23 22 24 24 23 23 22 23 21 16 15 17 16 17 15 17 18
4 7 8 3 7 11 7 7 23 24 9 9 22 8 24 17 21 23 24 24 24 23 22 21 21 21 21 22 21 20 19 18 20
6 3 7 13 18 14 12 9 10 12 13 13 14 19 14 14 16 16 18 20 20 20 21 21 22 22 21 22 24 22 21 21 23
7 5 5 10 12 12 9 12 9 6 7 6 17 23 16 15 17 16 14 16 15 14 16 19 22 23 24 23 23 23 23 21 19
6 6 4 4 1 6 9 14 14 9 10 14 16 20 26 17 18 13 14 14 15 13 12 11 16 19 23 25 31 28 28 25 21
6 5 4 3 0 1 4 7 9 10 10 12 12 10 15 20 15 15 14 9 3 6 10 15 15 18 20 22 24 25 26 23 23
5 4 3 4 3 4 6 3 4 5 6 8 8 8 10 20 13 11 9 5 6 15 17 21 22 22 20 22 25 26 27 29 25
7 4 3 2 4 5 5 2 2 5 4 4 2 8 12 9 4 6 8 9 16 15 15 19 17 14 12 11 14 16 20 23 22
6 6 4 3 3 6 5 3 1 3 2 1 4 9 13 10 10 10 14 11 11 9 7 4 2 3 2 4 7 8 9 9 11
4 4 4 3 5 7 8 6 4 3 7 6 8 11 12 12 10 9 9 10 11 10 8 4 4 4 2 2 1 2 1 5 6
5 2 3 3 5 6 6 7 7 6 6 6 9 9 10 9 6 5 6 8 8 7 7 6 5 6 7 7 6 5 5 4 3
3 4 3 3 4 3 4 5 5 6 7 8 6 4 6 6 5 5 6 6 5 5 6 4 4 7 8 7 6 6 5 6 4
Wind_Direction
200 210 215 218 198 182 177 179 178 183 197 205 197 191 203 195 207 202 204 179 202 225 223 235 225 230 253 247 232 270 238 228 255
203 213 204 194 189 189 181 191 181 184 196 200 203 201 204 207 203 197 204 213 214 229 247 250 179 221 243 228 219 237 263 251 227
211 199 206 216 173 185 183 179 182 188 199 200 198 201 216 210 204 206 202 211 216 195 224 243 224 209 221 234 231 239 252 251 229
181 190 196 202 203 188 197 195 173 182 190 190 194 199 211 210 215 217 214 214 220 215 215 216 240 234 240 234 231 228 245 245 228
172 170 210 201 203 203 222 200 184 184 188 196 199 199 206 206 215 214 217 229 229 227 228 231 234 228 228 234 236 228 240 251 244
103 121 153 169 178 192 198 240 182 190 191 197 196 196 201 208 208 211 215 230 221 237 238 237 244 241 239 241 236 235 241 253 250
139 142 193 226 192 185 190 140 164 191 190 196 196 192 201 199 207 211 213 224 232 235 240 255 252 238 238 252 251 245 247 256 260
130 142 194 133 203 223 227 276 302 299 215 187 199 197 196 201 204 210 214 222 228 232 237 248 250 252 247 251 258 255 257 250 257
66 104 172 108 91 179 264 259 257 281 301 209 205 186 203 201 206 211 218 224 229 230 231 240 248 244 245 255 255 244 253 256 262
59 85 97 114 107 108 194 218 246 266 271 256 258 232 188 196 197 209 222 222 226 232 236 237 239 243 242 242 251 245 246 245 253
99 165 134 147 161 163 176 186 211 253 229 208 212 239 232 208 210 217 227 231 236 237 241 243 247 251 255 252 253 253 247 250 253
93 97 144 197 198 213 238 247 237 236 257 282 247 232 218 216 222 224 224 233 229 239 251 252 252 257 257 253 255 258 252 251 259
100 92 81 88 321 260 236 249 254 258 267 278 289 244 233 226 211 204 218 228 232 238 254 269 266 261 261 255 260 262 249 255 270
103 87 74 65 86 279 261 248 251 271 278 269 265 238 241 224 210 204 207 223 225 290 287 269 269 266 265 270 262 256 252 257 260
108 98 56 35 357 328 313 308 228 236 281 276 262 254 242 219 207 214 195 257 285 305 289 296 287 270 261 262 265 269 266 261 248
115 96 84 28 27 347 346 347 215 231 237 263 211 205 207 151 165 246 229 230 285 294 273 278 280 268 263 272 270 268 272 261 257
97 88 58 19 37 15 13 11 246 225 224 72 152 168 184 199 203 206 258 236 247 231 205 218 262 255 245 307 302 283 260 253 265
114 35 55 50 51 45 45 44 48 174 155 155 156 157 167 172 175 174 181 182 188 178 175 187 177 207 188 138 312 290 194 218 251
97 70 58 58 50 57 60 65 77 116 173 179 165 159 163 168 176 166 181 190 185 186 197 229 225 238 250 246 263 271 259 227 226
117 105 117 36 64 51 83 79 74 100 114 123 144 169 165 170 170 173 168 176 178 191 205 214 225 212 225 220 238 242 251 269 244